Weather History for Jacksonville, FL

Change the Weather History Date:

Thursday, March 28, 2013

  Actual Average Record
Temperature  
Mean Temperature 51 °F 64 °F  
Max Temperature 67 °F 76 °F 89 °F (1994)
Min Temperature 35 °F 52 °F 35 °F (2013)
Degree Days  
Heating Degree Days 14 3  
Month to date heating degree days 289 147  
Since 1 July heating degree days 1182 1280  
Cooling Degree Days 0 2  
Month to date cooling degree days 15 48  
Year to date cooling degree days 91 77  
Moisture  
Dew Point 33 °F    
Average Humidity 56    
Maximum Humidity 92    
Minimum Humidity 20    
Precipitation  
Precipitation 0.00 in 0.12 in 7.12 in (1970)
Month to date precipitation 3.07 3.59  
Year to date precipitation 8.79 10.08  
Snow  
Snow 0.00 in 0.00 in T in (1955)
Month to date snowfall 0.0 0.0  
Since 1 July snowfall 0.0 T  
Snow Depth 0.00 in    
Sea Level Pressure  
Sea Level Pressure 30.27 in    
Wind  
Wind Speed 4 mph (North)    
Max Wind Speed 16 mph    
Max Gust Speed 22 mph    
Visibility 10 miles    
Events      
T = Trace of Precipitation, MM = Missing Value Source: NWS Daily Summary

Daily Weather History Graph

Daily Weather History Graph

Search for Another Location

Airport:

Trip Planner

Search our weather history database for the weather conditions in past years. The results will help you decide how hot, cold, wet, or windy it might be!

Date:

Astronomy

Mar. 28, 2013 Rise Set
Actual Time 7:20 AM EDT 7:43 PM EDT
Civil Twilight 6:56 AM EDT 8:07 PM EDT
Nautical Twilight 6:28 AM EDT 8:35 PM EDT
Astronomical Twilight 5:59 AM EDT 9:04 PM EDT
Moon 9:23 PM EDT (3/28) 7:55 AM EDT (3/28)
Length of Visible Light 13h 11m
Length of Day
12h 22m
Full, 98% of the Moon is Illuminated
Mar 28
Full
Apr 3
Last Quarter
Apr 10
New
Apr 18
First Quarter
Apr 25
Full

Hourly Weather History & Observations

Time (EDT) Temp. Windchill Dew Point Humidity Pressure Visibility Wind Dir Wind Speed Gust Speed Precip Events Conditions
12:56 AM 39.0 °F 36.8 °F 35.1 °F 86% 30.27 in 10.0 mi WSW 3.5 mph - N/A   Clear
1:56 AM 37.0 °F - 34.0 °F 89% 30.26 in 10.0 mi Calm Calm - N/A   Clear
2:56 AM 37.0 °F - 34.0 °F 89% 30.26 in 10.0 mi Calm Calm - N/A   Clear
3:56 AM 35.1 °F - 32.0 °F 89% 30.25 in 10.0 mi Calm Calm - N/A   Clear
4:56 AM 36.0 °F - 33.1 °F 89% 30.25 in 10.0 mi Calm Calm - N/A   Clear
5:56 AM 35.1 °F - 32.0 °F 89% 30.25 in 10.0 mi Calm Calm - N/A   Clear
6:56 AM 36.0 °F - 32.0 °F 86% 30.27 in 10.0 mi Calm Calm - N/A   Partly Cloudy
7:56 AM 37.9 °F - 33.1 °F 83% 30.29 in 10.0 mi Calm Calm - N/A   Clear
8:56 AM 46.0 °F 41.9 °F 35.1 °F 66% 30.30 in 10.0 mi NNW 8.1 mph - N/A   Clear
9:56 AM 52.0 °F - 32.0 °F 47% 30.32 in 10.0 mi NW 5.8 mph - N/A   Clear
10:56 AM 57.0 °F - 28.9 °F 34% 30.32 in 10.0 mi North 6.9 mph - N/A   Clear
11:56 AM 60.1 °F - 28.0 °F 30% 30.31 in 10.0 mi North 9.2 mph - N/A   Clear
12:56 PM 62.1 °F - 28.0 °F 28% 30.30 in 10.0 mi NNW 5.8 mph 18.4 mph N/A   Clear
1:56 PM 64.0 °F - 24.1 °F 22% 30.28 in 10.0 mi NW 10.4 mph 16.1 mph N/A   Clear
2:56 PM 66.0 °F - 24.1 °F 20% 30.26 in 10.0 mi North 9.2 mph - N/A   Clear
3:56 PM 66.9 °F - 25.0 °F 21% 30.23 in 10.0 mi NW 6.9 mph - N/A   Clear
4:56 PM 66.9 °F - 26.1 °F 21% 30.22 in 10.0 mi NW 12.7 mph - N/A   Clear
5:56 PM 64.0 °F - 41.0 °F 43% 30.22 in 10.0 mi East 4.6 mph - N/A   Clear
6:56 PM 60.1 °F - 41.0 °F 49% 30.24 in 10.0 mi ENE 9.2 mph - N/A   Clear
7:56 PM 54.0 °F - 42.1 °F 64% 30.25 in 10.0 mi ENE 5.8 mph - N/A   Clear
8:56 PM 52.0 °F - 42.1 °F 69% 30.27 in 10.0 mi Calm Calm - N/A   Clear
9:56 PM 48.0 °F - 41.0 °F 77% 30.28 in 10.0 mi Calm Calm - N/A   Clear
10:56 PM 46.0 °F - 39.9 °F 79% 30.30 in 10.0 mi Calm Calm - N/A   Clear
11:56 PM 44.1 °F - 41.0 °F 89% 30.30 in 10.0 mi Calm Calm - N/A   Clear